Volver al catálogo

STARLINK-34972

ActivoComunicacionesSSO
NORAD 65188·PAYLOAD·🇺🇸 United States

Lanzado Aug 14, 2025 desde Vandenberg Space Force Base

Loading…

Próximos Pases (próximas 24 horas)

TLE

ActualizadoSource: CelesTrak SupGP

Época: Sep 15, 2026, 03:11 UTC

1 65188C 25175Q   26258.13312500  .00026793  00000+0  83145-3 0  2584
2 65188  97.2843 127.2213 0001684  93.4171 220.6714 15.33435343    12

Sigue STARLINK-34972 en tiempo real con AllMySat

Download on the App Store